GW3984 Weather Reports


Display with metric or nautical units.
time (UTC)temp
F
wind
direction
speed
MPH
gust
MPH
rain 1hr
in
rain 24hr
in
rain mn
in
humidity
%
barometer
mb
20260901235253 93 120 0.0 3.0 0.00 0.00 0.00 44 1012.8
20260901234527 93 140 0.0 3.0 0.00 0.00 0.00 42 1013.6
20260901234220 94 157 0.0 2.0 0.00 0.00 0.00 43 1012.9
20260901233240 94 108 0.0 3.0 0.00 0.00 0.00 42 1012.8
20260901233034 94 151 1.0 2.0 0.00 0.00 0.00 43 1013.6
20260901232252 94 161 0.0 1.0 0.00 0.00 0.00 42 1012.8
20260901231526 94 132 0.0 2.0 0.00 0.00 0.00 44 1013.6
20260901231303 94 88 0.0 1.0 0.00 0.00 0.00 43 1012.8
20260901230030 93 178 0.0 3.0 0.00 0.00 0.00 45 1013.7
20260901225118 94 160 0.0 3.0 0.00 0.00 0.00 45 1013.0
20260901224522 93 140 1.0 3.0 0.00 0.00 0.00 44 1013.8
20260901224044 94 113 0.0 1.0 0.00 0.00 0.00 45 1013.0
20260901223040 94 131 0.0 1.0 0.00 0.00 0.00 45 1012.9
20260901223037 93 128 0.0 2.0 0.00 0.00 0.00 46 1013.8
20260901222020 93 126 0.0 3.0 0.00 0.00 0.00 44 1013.0
20260901221512 94 140 1.0 4.0 0.00 0.00 0.00 42 1013.8
20260901220954 95 146 0.0 3.0 0.00 0.00 0.00 41 1013.0
20260901220009 94 139 1.0 3.0 0.00 0.00 0.00 40 1013.9
20260901215946 95 159 0.0 2.0 0.00 0.00 0.00 41 1013.1
20260901214508 92 107 0.0 2.0 0.00 0.00 0.00 46 1013.9
20260901213843 92 211 0.0 0.0 0.00 0.00 0.00 49 1013.2
20260901213036 93 317 0.0 2.0 0.00 0.00 0.00 44 1014.1
20260901212824 94 323 0.0 6.0 0.00 0.00 0.00 43 1013.3
20260901211836 95 53 0.0 0.0 0.00 0.00 0.00 42 1013.4
20260901211530 95 117 1.0 8.0 0.00 0.00 0.00 42 1014.1
20260901210858 95 139 0.0 4.0 0.00 0.00 0.00 41 1013.5
20260901210035 95 122 2.0 4.0 0.00 0.00 0.00 40 1014.4
20260901205839 96 174 0.0 5.0 0.00 0.00 0.00 40 1013.6
20260901204841 95 300 0.0 5.0 0.00 0.00 0.00 42 1013.7
20260901204528 95 156 0.0 7.0 0.00 0.00 0.00 42 1014.6
20260901203019 95 125 2.0 6.0 0.00 0.00 0.00 42 1014.9
20260901202736 95 58 0.0 1.0 0.00 0.00 0.00 44 1014.1
20260901201704 95 141 0.0 1.0 0.00 0.00 0.00 44 1014.2
20260901201516 94 294 0.0 2.0 0.00 0.00 0.00 44 1015.1
20260901200718 95 179 0.0 2.0 0.00 0.00 0.00 43 1014.4
20260901200036 94 284 1.0 2.0 0.00 0.00 0.00 43 1015.5
20260901194604 95 30 1.0 5.0 0.00 0.00 0.00 45 1014.8
20260901194511 94 236 0.0 7.0 0.00 0.00 0.00 44 1015.7
20260901193556 94 65 0.0 3.0 0.00 0.00 0.00 43 1014.8
20260901193028 94 59 1.0 4.0 0.00 0.00 0.00 42 1015.8
20260901192550 94 134 0.0 6.0 0.00 0.00 0.00 42 1014.9
20260901191535 94 195 1.0 8.0 0.00 0.00 0.00 43 1016.0
20260901191520 94 175 1.0 6.0 0.00 0.00 0.00 43 1015.1
20260901190041 94 160 4.0 9.0 0.00 0.00 0.00 43 1016.1
20260901185301 95 168 0.0 4.0 0.00 0.00 0.00 45 1015.4
20260901184527 93 329 1.0 7.0 0.00 0.00 0.00 44 1016.4
20260901184318 93 136 1.0 4.0 0.00 0.00 0.00 45 1015.6
20260901183315 96 119 0.0 7.0 0.00 0.00 0.00 43 1015.7
20260901183022 95 336 0.0 7.0 0.00 0.00 0.00 48 1016.5
20260901182333 95 124 0.0 7.0 0.00 0.00 0.00 45 1015.8
20260901181537 94 92 0.0 6.0 0.00 0.00 0.00 45 1016.8
20260901180117 93 218 1.0 4.0 0.00 0.00 0.00 48 1016.2
20260901180026 93 107 2.0 6.0 0.00 0.00 0.00 47 1017.1
20260901175120 93 119 0.0 4.0 0.00 0.00 0.00 48 1016.3
20260901174514 92 107 2.0 5.0 0.00 0.00 0.00 49 1017.4
20260901174144 92 15 0.0 3.0 0.00 0.00 0.00 52 1016.5
20260901173135 93 199 0.0 3.0 0.00 0.00 0.00 48 1016.6
20260901173037 93 132 2.0 4.0 0.00 0.00 0.00 45 1017.4
20260901172123 93 204 1.0 5.0 0.00 0.00 0.00 50 1016.7
20260901171529 91 202 1.0 6.0 0.00 0.00 0.00 51 1017.6
20260901171116 92 131 0.0 5.0 0.00 0.00 0.00 53 1016.8
20260901170057 91 201 0.0 4.0 0.00 0.00 0.00 52 1016.9
20260901165119 91 195 0.0 4.0 0.00 0.00 0.00 47 1017.0
20260901164527 91 208 1.0 6.0 0.00 0.00 0.00 51 1017.9
20260901164138 93 139 0.0 5.0 0.00 0.00 0.00 51 1017.0
20260901163140 91 295 1.0 5.0 0.00 0.00 0.00 51 1017.1
20260901163025 90 145 2.0 7.0 0.00 0.00 0.00 53 1018.0
20260901162145 92 141 0.0 2.0 0.00 0.00 0.00 52 1017.1
20260901161524 91 10 0.0 4.0 0.00 0.00 0.00 54 1018.0
20260901161144 89 114 0.0 3.0 0.00 0.00 0.00 52 1017.2
20260901160136 89 133 0.0 2.0 0.00 0.00 0.00 56 1017.2
20260901160029 90 150 1.0 3.0 0.00 0.00 0.00 56 1018.0
20260901155146 89 123 0.0 2.0 0.00 0.00 0.00 57 1017.2
20260901154513 88 224 1.0 3.0 0.00 0.00 0.00 59 1017.9
20260901154206 89 319 0.0 2.0 0.00 0.00 0.00 61 1017.2
20260901153209 88 289 0.0 0.0 0.00 0.00 0.00 61 1017.0
20260901153044 87 319 0.0 2.0 0.00 0.00 0.00 61 1017.9
20260901152150 89 292 0.0 1.0 0.00 0.00 0.00 63 1017.0
20260901151532 87 269 0.0 2.0 0.00 0.00 0.00 62 1017.9
20260901151118 87 9 0.0 0.0 0.00 0.00 0.00 64 1017.1
20260901150052 85 35 0.0 2.0 0.00 0.00 0.00 66 1017.1
20260901150031 85 96 1.0 3.0 0.00 0.00 0.00 66 1018.0
20260901145115 85 127 0.0 1.0 0.00 0.00 0.00 68 1017.1
20260901144531 84 333 0.0 3.0 0.00 0.00 0.00 70 1018.0
20260901144056 84 66 0.0 2.0 0.00 0.00 0.00 71 1017.2
20260901143105 84 122 0.0 1.0 0.00 0.00 0.00 72 1017.1
20260901143031 84 261 0.0 2.0 0.00 0.00 0.00 73 1017.8
20260901142057 83 138 0.0 1.0 0.00 0.00 0.00 77 1017.1
20260901141535 82 156 0.0 2.0 0.00 0.00 0.00 76 1017.7
20260901140029 80 177 0.0 2.0 0.00 0.00 0.00 81 1017.9
20260901134834 79 136 0.0 0.0 0.00 0.00 0.00 85 1017.1
20260901134536 79 138 0.0 0.0 0.00 0.00 0.00 86 1017.9
20260901133819 79 139 0.0 0.0 0.00 0.00 0.00 88 1017.0
20260901133018 78 141 0.0 0.0 0.00 0.00 0.00 88 1017.7
20260901132836 78 139 0.0 0.0 0.00 0.00 0.00 89 1017.0
20260901131821 77 128 0.0 0.0 0.00 0.00 0.00 91 1017.0
20260901131522 76 116 0.0 0.0 0.00 0.00 0.00 91 1017.7
20260901130014 75 97 0.0 0.0 0.00 0.00 0.00 92 1017.5
20260901125717 75 94 0.0 0.0 0.00 0.00 0.00 92 1016.7
20260901124726 74 94 0.0 0.0 0.00 0.00 0.00 92 1016.6
20260901124511 74 97 0.0 0.0 0.00 0.00 0.00 91 1017.4
20260901123733 74 94 0.0 0.0 0.00 0.00 0.00 92 1016.5
20260901123008 74 101 0.0 0.0 0.00 0.00 0.00 91 1017.2
20260901122751 74 97 0.0 0.0 0.00 0.00 0.00 91 1016.4
20260901121729 74 97 0.0 0.0 0.00 0.00 0.00 91 1016.3
20260901121504 74 101 0.0 0.0 0.00 0.00 0.00 91 1017.1
20260901120745 75 97 0.0 0.0 0.00 0.00 0.00 91 1016.3
20260901120030 74 101 0.0 0.0 0.00 0.00 0.00 90 1017.2
20260901114616 76 97 0.0 0.0 0.00 0.00 0.00 90 1016.3
20260901114525 75 101 0.0 0.0 0.00 0.00 0.00 90 1017.3
20260901113023 76 101 0.0 0.0 0.00 0.00 0.00 88 1017.4
20260901112431 76 97 0.0 0.0 0.00 0.00 0.00 89 1016.5
20260901111519 76 116 0.0 0.0 0.00 0.00 0.00 88 1017.3
20260901111411 77 114 0.0 0.0 0.00 0.00 0.00 89 1016.5
20260901110342 77 114 0.0 0.0 0.00 0.00 0.00 89 1016.3
20260901110019 76 107 0.0 0.0 0.00 0.00 0.00 88 1017.2
20260901105329 77 150 0.0 0.0 0.00 0.00 0.00 89 1016.5
20260901104521 76 152 0.0 0.0 0.00 0.00 0.00 88 1017.3
20260901104322 76 150 0.0 0.0 0.00 0.00 0.00 89 1016.5
20260901103335 76 139 0.0 0.0 0.00 0.00 0.00 89 1016.5
20260901103012 76 140 0.0 0.0 0.00 0.00 0.00 88 1017.3
20260901102343 76 139 0.0 0.0 0.00 0.00 0.00 89 1016.4
20260901101507 76 248 0.0 0.0 0.00 0.00 0.00 88 1017.1
20260901101345 76 250 0.0 0.0 0.00 0.00 0.00 88 1016.2
20260901100357 76 202 0.0 0.0 0.00 0.00 0.00 88 1016.2
20260901100029 76 201 0.0 0.0 0.00 0.00 0.00 87 1017.2
20260901095358 77 198 0.0 0.0 0.00 0.00 0.00 87 1016.2
20260901094529 77 197 0.0 0.0 0.00 0.00 0.00 86 1017.1
20260901094351 77 198 0.0 0.0 0.00 0.00 0.00 87 1016.2
20260901093028 77 240 0.0 0.0 0.00 0.00 0.00 86 1017.0
20260901092241 78 243 0.0 0.0 0.00 0.00 0.00 86 1016.3
20260901091527 77 240 0.0 2.0 0.00 0.00 0.00 85 1017.3
20260901091224 78 265 0.0 0.0 0.00 0.00 0.00 85 1016.5
20260901090230 78 114 0.0 1.0 0.00 0.00 0.00 85 1016.5
20260901090026 78 158 0.0 2.0 0.00 0.00 0.00 84 1017.4
20260901085158 79 117 0.0 0.0 0.00 0.00 0.00 85 1016.7
20260901084519 78 140 0.0 3.0 0.00 0.00 0.00 84 1017.5
20260901084140 79 204 0.0 2.0 0.00 0.00 0.00 84 1016.6
20260901083159 79 92 0.0 3.0 0.00 0.00 0.00 84 1016.5
20260901083028 78 176 1.0 3.0 0.00 0.00 0.00 83 1017.4
20260901082221 79 79 0.0 3.0 0.00 0.00 0.00 84 1016.5
20260901081515 78 121 0.0 3.0 0.00 0.00 0.00 83 1017.2
20260901081204 79 108 0.0 2.0 0.00 0.00 0.00 83 1016.4
20260901080228 79 148 0.0 3.0 0.00 0.00 0.00 82 1016.4
20260901080029 78 123 0.0 2.0 0.00 0.00 0.00 81 1017.3
20260901075204 79 99 0.0 1.0 0.00 0.00 0.00 81 1016.3
20260901074533 78 119 0.0 2.0 0.00 0.00 0.00 80 1017.2
20260901074154 79 94 0.0 1.0 0.00 0.00 0.00 80 1016.2
20260901073148 79 166 0.0 1.0 0.00 0.00 0.00 79 1016.3
20260901073038 79 130 0.0 2.0 0.00 0.00 0.00 79 1017.2
20260901072114 79 115 0.0 0.0 0.00 0.00 0.00 78 1016.5
20260901071528 79 121 0.0 3.0 0.00 0.00 0.00 77 1017.3
20260901071108 80 128 0.0 0.0 0.00 0.00 0.00 77 1016.5
20260901070111 80 167 0.0 4.0 0.00 0.00 0.00 76 1016.3
20260901070027 80 98 1.0 6.0 0.00 0.00 0.00 76 1017.2
20260901065056 80 117 0.0 4.0 0.00 0.00 0.00 76 1016.2
20260901064534 80 163 2.0 6.0 0.00 0.00 0.00 75 1017.2
20260901064103 80 153 0.0 1.0 0.00 0.00 0.00 76 1016.3
20260901063019 80 151 0.0 2.0 0.00 0.00 0.00 75 1017.2
20260901061533 80 123 0.0 3.0 0.00 0.00 0.00 73 1017.2
20260901060828 81 123 0.0 2.0 0.00 0.00 0.00 73 1016.2
20260901060042 81 141 1.0 6.0 0.00 0.00 0.00 72 1016.8
20260901054706 82 132 0.0 4.0 0.00 0.00 0.00 71 1015.9
20260901054536 81 105 0.0 6.0 0.00 0.00 0.00 71 1016.7
20260901053646 82 250 0.0 5.0 0.00 0.00 0.00 70 1015.9
20260901053030 82 145 1.0 4.0 0.00 0.00 0.00 68 1016.7
20260901052613 82 137 0.0 5.0 0.00 0.00 0.00 69 1015.8
20260901051611 83 148 0.0 5.0 0.00 0.00 0.00 69 1015.9
20260901051535 82 129 2.0 7.0 0.00 0.00 0.00 69 1016.6
20260901050031 82 131 1.0 6.0 0.00 0.00 0.00 68 1016.6
20260901045443 83 116 0.0 5.0 0.00 0.00 0.00 69 1015.6
20260901044526 83 128 1.0 6.0 0.00 0.00 0.00 68 1016.4
20260901044415 83 144 0.0 4.0 0.00 0.00 0.00 68 1015.7
20260901043026 84 141 1.0 6.0 0.00 0.00 0.00 66 1016.4
20260901041523 84 165 1.0 6.0 0.00 0.00 0.00 65 1016.3
20260901041144 85 119 1.0 8.0 0.00 0.00 0.00 65 1015.6
20260901040036 85 113 3.0 10.0 0.00 0.00 0.00 63 1016.3
20260901035105 86 89 1.0 5.0 0.00 0.00 0.00 62 1015.4
20260901034534 85 117 2.0 7.0 0.00 0.00 0.00 61 1016.0
20260901034129 86 122 1.0 6.0 0.00 0.00 0.00 61 1015.3
20260901033102 87 104 1.0 6.0 0.00 0.00 0.00 60 1015.2
20260901033032 86 159 1.0 8.0 0.00 0.00 0.00 59 1016.0
20260901032032 87 120 1.0 5.0 0.00 0.00 0.00 59 1015.1
20260901031510 86 110 1.0 6.0 0.00 0.00 0.00 58 1015.8
20260901030007 87 87 1.0 8.0 0.00 0.00 0.00 58 1015.5
20260901024729 88 161 1.0 6.0 0.00 0.00 0.00 58 1014.6
20260901024512 87 128 2.0 8.0 0.00 0.00 0.00 57 1015.3
20260901023006 87 159 0.0 7.0 0.00 0.00 0.00 58 1015.1
20260901022553 88 105 1.0 6.0 0.00 0.00 0.00 58 1014.3
20260901021554 88 92 1.0 6.0 0.00 0.00 0.00 57 1014.2
20260901021508 87 168 2.0 8.0 0.00 0.00 0.00 57 1015.0
20260901020008 88 71 1.0 4.0 0.00 0.00 0.00 56 1014.8
20260901015444 88 129 0.0 3.0 0.00 0.00 0.00 56 1014.0
20260901014507 88 109 1.0 6.0 0.00 0.00 0.00 55 1014.6
20260901014459 89 111 1.0 4.0 0.00 0.00 0.00 55 1013.9
20260901013504 89 122 0.0 6.0 0.00 0.00 0.00 53 1013.8
20260901013009 88 146 1.0 6.0 0.00 0.00 0.00 52 1014.5
20260901012500 89 94 0.0 6.0 0.00 0.00 0.00 52 1013.6
20260901011509 86 138 0.0 2.0 0.00 0.00 0.00 56 1014.3
20260901011432 87 136 0.0 1.0 0.00 0.00 0.00 57 1013.5
20260901010013 88 138 0.0 1.0 0.00 0.00 0.00 50 1014.1
20260901005318 89 136 0.0 0.0 0.00 0.00 0.00 50 1013.3
20260901004507 90 138 0.0 2.0 0.00 0.00 0.00 47 1014.1
20260901004338 90 141 0.0 4.0 0.00 0.00 0.00 48 1013.4
20260901003343 91 126 0.0 3.0 0.00 0.00 0.00 47 1013.3
20260901003008 91 162 0.0 4.0 0.00 0.00 0.00 46 1014.1
20260901002348 91 113 0.0 1.0 0.00 0.00 0.00 48 1013.3
20260901001515 92 126 1.0 6.0 0.00 0.00 0.00 45 1014.0
20260901001359 92 137 0.0 4.0 0.00 0.00 0.00 46 1013.1
20260901000420 93 117 1.0 6.0 0.00 0.00 0.00 45 1013.1
20260901000014 92 92 2.0 8.0 0.00 0.00 0.00 44 1013.9
20260831235434 93 129 0.0 6.0 0.00 0.00 0.00 44 1013.0